Time,TemperatureF,DewpointF,PressureIn,WindDirection,WindDirectionDegrees,WindSpeedMPH,WindSpeedGustMPH,Humidity,HourlyPrecipIn,Conditions,Clouds,dailyrainin,SoftwareType,DateUTC
2013-06-27 00:01:00,72.0,72.0,30.04,South,180,6.0,9.0,100,99.99,,,-99.99,,2013-06-27 04:01:00,
2013-06-27 00:11:00,72.0,72.0,30.04,South,180,6.0,9.0,100,99.99,,,-99.99,,2013-06-27 04:11:00,
2013-06-27 00:32:00,72.0,72.0,30.03,South,180,8.0,10.0,100,99.99,,,-99.99,,2013-06-27 04:32:00,
2013-06-27 00:42:00,73.0,73.0,30.06,ENE,69,3.0,5.0,100,99.99,,,-99.99,,2013-06-27 04:42:00,
2013-06-27 01:02:00,73.0,73.0,30.07,NE,56,3.0,6.0,100,99.99,,,-99.99,,2013-06-27 05:02:00,
2013-06-27 01:12:00,73.0,73.0,30.06,NE,55,3.0,5.0,100,99.99,,,-99.99,,2013-06-27 05:12:00,
2013-06-27 01:32:00,72.0,72.0,30.07,North,0,0.0,0.0,100,99.99,,,-99.99,,2013-06-27 05:32:00,
2013-06-27 01:42:00,72.0,72.0,30.06,North,0,0.0,0.0,100,99.99,,,-99.99,,2013-06-27 05:42:00,
2013-06-27 01:53:00,72.0,72.0,30.05,North,0,0.0,0.0,100,99.99,,,-99.99,,2013-06-27 05:53:00,
2013-06-27 02:01:00,72.0,72.0,30.04,North,0,0.0,0.0,100,99.99,,,-99.99,,2013-06-27 06:01:00,
2013-06-27 02:12:00,72.0,72.0,30.04,North,0,0.0,0.0,100,99.99,,,-99.99,,2013-06-27 06:12:00,
2013-06-27 02:34:00,72.0,72.0,30.04,West,270,0.0,2.0,100,99.99,,,-99.99,,2013-06-27 06:34:00,
2013-06-27 02:43:00,72.0,72.0,30.03,SSW,211,2.0,4.0,100,99.99,,,-99.99,,2013-06-27 06:43:00,
2013-06-27 02:53:00,73.0,73.0,30.03,SSW,200,2.0,4.0,100,99.99,,,-99.99,,2013-06-27 06:53:00,
2013-06-27 03:02:00,73.0,73.0,30.03,South,184,3.0,4.0,100,99.99,,,-99.99,,2013-06-27 07:02:00,
2013-06-27 03:33:00,72.0,72.0,30.02,South,170,3.0,5.0,100,99.99,,,-99.99,,2013-06-27 07:33:00,
2013-06-27 03:42:00,73.0,73.0,30.02,South,174,1.0,3.0,100,99.99,,,-99.99,,2013-06-27 07:42:00,
2013-06-27 03:52:00,72.0,72.0,30.03,South,170,0.0,3.0,100,99.99,,,-99.99,,2013-06-27 07:52:00,
2013-06-27 04:01:00,72.0,72.0,30.03,North,0,0.0,0.0,100,99.99,,,-99.99,,2013-06-27 08:01:00,
2013-06-27 04:34:00,72.0,72.0,30.03,SE,146,1.0,3.0,100,99.99,,,-99.99,,2013-06-27 08:34:00,
2013-06-27 04:43:00,72.0,72.0,30.02,North,0,0.0,0.0,100,99.99,,,-99.99,,2013-06-27 08:43:00,
2013-06-27 04:52:00,72.0,72.0,30.03,North,0,0.0,0.0,100,99.99,,,-99.99,,2013-06-27 08:52:00,
2013-06-27 05:02:00,72.0,72.0,30.03,North,0,0.0,0.0,100,99.99,,,-99.99,,2013-06-27 09:02:00,
2013-06-27 05:11:00,72.0,72.0,30.03,North,0,0.0,0.0,100,99.99,,,-99.99,,2013-06-27 09:11:00,
2013-06-27 05:22:00,72.0,72.0,30.03,North,0,0.0,0.0,100,99.99,,,-99.99,,2013-06-27 09:22:00,
2013-06-27 05:43:00,72.0,72.0,30.04,SW,236,2.0,3.0,100,99.99,,,-99.99,,2013-06-27 09:43:00,
2013-06-27 05:53:00,72.0,72.0,30.03,SW,226,2.0,3.0,100,99.99,,,-99.99,,2013-06-27 09:53:00,
2013-06-27 06:01:00,72.0,72.0,30.03,SW,226,2.0,3.0,100,99.99,,,-99.99,,2013-06-27 10:01:00,
2013-06-27 06:11:00,73.0,73.0,30.04,SW,226,1.0,3.0,100,99.99,,,-99.99,,2013-06-27 10:11:00,
2013-06-27 08:22:00,75.0,75.0,30.05,South,183,2.0,4.0,100,99.99,,,-99.99,,2013-06-27 12:22:00,
2013-06-27 08:42:00,76.0,76.0,30.06,SSE,166,2.0,3.0,100,99.99,,,-99.99,,2013-06-27 12:42:00,
2013-06-27 09:01:00,76.0,76.0,30.06,South,172,2.0,4.0,100,99.99,,,-99.99,,2013-06-27 13:01:00,
2013-06-27 09:34:00,78.0,77.0,30.06,WSW,248,3.0,4.0,97,99.99,,,-99.99,,2013-06-27 13:34:00,
2013-06-27 10:52:00,83.0,74.0,30.05,SW,225,4.0,6.0,74,99.99,,,-99.99,,2013-06-27 14:52:00,
2013-06-27 11:33:00,84.0,72.0,30.05,WSW,255,2.0,6.0,67,99.99,,,-99.99,,2013-06-27 15:33:00,
2013-06-27 11:42:00,84.0,72.0,30.05,WSW,255,2.0,6.0,67,99.99,,,-99.99,,2013-06-27 15:42:00,
2013-06-27 11:52:00,84.0,72.0,30.05,WSW,255,2.0,6.0,67,99.99,,,-99.99,,2013-06-27 15:52:00,
2013-06-27 12:34:00,87.0,70.0,30.04,SW,229,4.0,6.0,58,99.99,,,-99.99,,2013-06-27 16:34:00,
2013-06-27 12:43:00,88.0,73.0,30.04,SE,146,3.0,6.0,61,99.99,,,-99.99,,2013-06-27 16:43:00,
2013-06-27 12:53:00,89.0,72.0,30.04,SSE,150,2.0,6.0,58,99.99,,,-99.99,,2013-06-27 16:53:00,
2013-06-27 13:11:00,90.0,72.0,30.04,SSE,160,2.0,6.0,56,99.99,,,-99.99,,2013-06-27 17:11:00,
2013-06-27 14:01:00,90.0,71.0,30.03,SE,139,2.0,7.0,54,99.99,,,-99.99,,2013-06-27 18:01:00,
2013-06-27 14:12:00,90.0,71.0,30.03,SE,139,2.0,7.0,54,99.99,,,-99.99,,2013-06-27 18:12:00,
2013-06-27 14:22:00,91.0,70.0,30.02,SSE,165,2.0,5.0,51,99.99,,,-99.99,,2013-06-27 18:22:00,
2013-06-27 14:32:00,91.0,70.0,30.02,SSE,165,2.0,5.0,51,99.99,,,-99.99,,2013-06-27 18:32:00,
2013-06-27 14:44:00,90.0,68.0,30.02,South,187,1.0,3.0,49,99.99,,,-99.99,,2013-06-27 18:44:00,
2013-06-27 14:52:00,90.0,68.0,30.02,South,187,1.0,3.0,49,99.99,,,-99.99,,2013-06-27 18:52:00,
2013-06-27 15:01:00,90.0,68.0,30.02,South,187,1.0,3.0,49,99.99,,,-99.99,,2013-06-27 19:01:00,
2013-06-27 15:34:00,93.0,71.0,30.00,SE,145,2.0,7.0,49,99.99,,,-99.99,,2013-06-27 19:34:00,
2013-06-27 15:53:00,94.0,71.0,30.00,SSE,162,3.0,6.0,47,99.99,,,-99.99,,2013-06-27 19:53:00,
2013-06-27 16:54:00,90.0,70.0,29.97,WNW,287,0.0,1.0,52,99.99,,,-99.99,,2013-06-27 20:54:00,
2013-06-27 17:46:00,91.0,71.0,29.97,North,0,0.0,0.0,52,99.99,,,-99.99,,2013-06-27 21:46:00,
2013-06-27 17:53:00,91.0,70.0,29.97,North,0,0.0,0.0,51,99.99,,,-99.99,,2013-06-27 21:53:00,
2013-06-27 18:35:00,89.0,72.0,29.96,WSW,255,0.0,1.0,57,99.99,,,-99.99,,2013-06-27 22:35:00,
2013-06-27 18:56:00,88.0,72.0,29.96,SW,228,3.0,5.0,60,99.99,,,-99.99,,2013-06-27 22:56:00,
2013-06-27 19:05:00,88.0,72.0,29.96,WSW,248,2.0,5.0,60,99.99,,,-99.99,,2013-06-27 23:05:00,
2013-06-27 19:15:00,89.0,74.0,29.96,SW,214,3.0,5.0,61,99.99,,,-99.99,,2013-06-27 23:15:00,
2013-06-27 19:35:00,87.0,74.0,29.96,West,260,5.0,8.0,65,99.99,,,-99.99,,2013-06-27 23:35:00,
2013-06-27 19:45:00,87.0,74.0,29.96,SW,225,4.0,7.0,66,99.99,,,-99.99,,2013-06-27 23:45:00,
2013-06-27 19:55:00,86.0,74.0,29.96,WSW,248,5.0,10.0,67,99.99,,,-99.99,,2013-06-27 23:55:00,
2013-06-27 20:07:00,86.0,75.0,29.96,WSW,250,5.0,8.0,69,99.99,,,-99.99,,2013-06-28 00:07:00,
2013-06-27 20:14:00,85.0,74.0,29.96,WSW,245,5.0,8.0,70,99.99,,,-99.99,,2013-06-28 00:14:00,
2013-06-27 20:35:00,80.0,79.0,29.98,WNW,284,8.0,15.0,98,99.99,,,-99.99,,2013-06-28 00:35:00,
2013-06-27 20:45:00,79.0,79.0,29.98,West,271,3.0,6.0,100,99.99,,,-99.99,,2013-06-28 00:45:00,
2013-06-27 20:54:00,79.0,79.0,29.99,SW,221,2.0,4.0,100,99.99,,,-99.99,,2013-06-28 00:54:00,
2013-06-27 21:07:00,78.0,78.0,29.99,SSW,198,4.0,8.0,100,99.99,,,-99.99,,2013-06-28 01:07:00,
2013-06-27 21:14:00,77.0,77.0,29.98,WSW,240,6.0,10.0,100,99.99,,,-99.99,,2013-06-28 01:14:00,
2013-06-27 21:25:00,77.0,77.0,29.97,WSW,253,5.0,10.0,100,99.99,,,-99.99,,2013-06-28 01:25:00,
2013-06-27 21:56:00,77.0,77.0,29.98,South,183,1.0,4.0,100,99.99,,,-99.99,,2013-06-28 01:56:00,